TimeCST,TemperatureF,Dew PointF,Humidity,Sea Level PressureIn,VisibilityMPH,Wind Direction,Wind SpeedMPH,Gust SpeedMPH,PrecipitationIn,Events,Conditions,WindDirDegrees,DateUTC
12:15 AM,28.4,24.8,86,29.69,10.0,SE,6.9,-,N/A,,Mostly Cloudy,140,2013-02-06 06:15:00
12:35 AM,30.2,24.8,80,29.69,10.0,SSE,12.7,17.3,N/A,,Scattered Clouds,150,2013-02-06 06:35:00
12:55 AM,28.4,24.8,86,29.68,10.0,SE,10.4,-,N/A,,Mostly Cloudy,140,2013-02-06 06:55:00
1:15 AM,30.2,24.8,80,29.67,10.0,SE,9.2,-,N/A,,Scattered Clouds,140,2013-02-06 07:15:00
1:35 AM,28.4,24.8,86,29.67,10.0,SE,11.5,-,N/A,,Mostly Cloudy,130,2013-02-06 07:35:00
1:55 AM,28.4,23.0,80,29.66,10.0,SE,12.7,-,N/A,,Mostly Cloudy,130,2013-02-06 07:55:00
2:15 AM,26.6,23.0,86,29.66,10.0,ESE,10.4,-,N/A,,Scattered Clouds,120,2013-02-06 08:15:00
2:35 AM,24.8,23.0,93,29.66,10.0,SE,9.2,-,N/A,,Clear,130,2013-02-06 08:35:00
2:55 AM,26.6,23.0,86,29.65,10.0,SE,8.1,-,N/A,,Clear,140,2013-02-06 08:55:00
3:15 AM,24.8,21.2,86,29.65,10.0,SSE,10.4,-,N/A,,Clear,150,2013-02-06 09:15:00
3:35 AM,24.8,21.2,86,29.65,10.0,ESE,5.8,-,N/A,,Partly Cloudy,110,2013-02-06 09:35:00
3:55 AM,23.0,21.2,93,29.63,10.0,SE,5.8,-,N/A,,Scattered Clouds,140,2013-02-06 09:55:00
4:15 AM,24.8,23.0,93,29.62,10.0,SE,6.9,-,N/A,,Partly Cloudy,130,2013-02-06 10:15:00
4:35 AM,24.8,21.2,86,29.63,10.0,East,4.6,-,N/A,,Clear,90,2013-02-06 10:35:00
4:55 AM,23.0,19.4,86,29.62,10.0,ESE,5.8,-,N/A,,Clear,120,2013-02-06 10:55:00
5:15 AM,21.2,17.6,86,29.62,10.0,SE,4.6,-,N/A,,Clear,130,2013-02-06 11:15:00
5:35 AM,21.2,17.6,86,29.63,10.0,Calm,Calm,-,N/A,,Clear,0,2013-02-06 11:35:00
5:55 AM,19.4,17.6,93,29.63,10.0,WSW,3.5,-,N/A,,Clear,250,2013-02-06 11:55:00
6:15 AM,19.4,19.4,100,29.63,10.0,SSW,5.8,-,N/A,,Clear,210,2013-02-06 12:15:00
6:35 AM,19.4,17.6,93,29.64,10.0,WSW,4.6,-,N/A,,Clear,240,2013-02-06 12:35:00
6:55 AM,19.4,19.4,100,29.64,10.0,WSW,4.6,-,N/A,,Clear,240,2013-02-06 12:55:00
7:15 AM,17.6,17.6,100,29.65,10.0,SW,6.9,-,N/A,,Clear,220,2013-02-06 13:15:00
7:35 AM,23.0,21.2,93,29.65,10.0,SSW,10.4,-,N/A,,Clear,210,2013-02-06 13:35:00
7:55 AM,23.0,21.2,93,29.65,10.0,WSW,4.6,-,N/A,,Clear,250,2013-02-06 13:55:00
8:15 AM,23.0,21.2,93,29.67,10.0,WSW,10.4,-,N/A,,Clear,240,2013-02-06 14:15:00
8:35 AM,24.8,23.0,93,29.67,10.0,SW,12.7,-,N/A,,Clear,220,2013-02-06 14:35:00
8:55 AM,26.6,23.0,86,29.68,10.0,WSW,10.4,-,N/A,,Clear,240,2013-02-06 14:55:00
9:15 AM,28.4,23.0,80,29.68,10.0,SW,8.1,-,N/A,,Clear,230,2013-02-06 15:15:00
9:35 AM,28.4,23.0,80,29.69,10.0,WSW,13.8,-,N/A,,Clear,240,2013-02-06 15:35:00
9:55 AM,26.6,23.0,86,29.70,10.0,SW,10.4,-,N/A,,Clear,230,2013-02-06 15:55:00
10:15 AM,32.0,24.8,75,29.71,10.0,WSW,11.5,-,N/A,,Clear,250,2013-02-06 16:15:00
10:35 AM,32.0,26.6,80,29.72,10.0,West,15.0,18.4,N/A,,Clear,270,2013-02-06 16:35:00
10:55 AM,32.0,26.6,80,29.73,10.0,West,15.0,-,N/A,,Clear,280,2013-02-06 16:55:00
11:15 AM,32.0,26.6,80,29.74,10.0,West,13.8,21.9,N/A,,Clear,280,2013-02-06 17:15:00
11:35 AM,32.0,26.6,80,29.74,10.0,West,13.8,18.4,N/A,,Clear,280,2013-02-06 17:35:00
12:15 PM,33.8,26.6,75,29.75,10.0,West,10.4,-,N/A,,Clear,280,2013-02-06 18:15:00
12:35 PM,33.8,26.6,75,29.76,10.0,WNW,11.5,-,N/A,,Clear,300,2013-02-06 18:35:00
12:55 PM,33.8,26.6,75,29.77,10.0,NW,11.5,16.1,N/A,,Clear,310,2013-02-06 18:55:00
1:15 PM,32.0,26.6,80,29.77,10.0,WNW,12.7,-,N/A,,Clear,300,2013-02-06 19:15:00
1:35 PM,32.0,26.6,80,29.78,10.0,WNW,5.8,-,N/A,,Clear,300,2013-02-06 19:35:00
1:55 PM,32.0,26.6,80,29.79,10.0,NW,8.1,-,N/A,,Partly Cloudy,310,2013-02-06 19:55:00
2:15 PM,32.0,26.6,80,29.79,10.0,WNW,12.7,-,N/A,,Clear,290,2013-02-06 20:15:00
2:35 PM,32.0,26.6,80,29.79,10.0,NW,11.5,-,N/A,,Clear,320,2013-02-06 20:35:00
2:55 PM,32.0,26.6,80,29.80,10.0,NW,9.2,-,N/A,,Clear,320,2013-02-06 20:55:00
3:35 PM,32.0,26.6,80,29.82,10.0,NW,9.2,-,N/A,,Clear,320,2013-02-06 21:35:00
3:55 PM,32.0,26.6,80,29.83,10.0,NNW,6.9,-,N/A,,Clear,340,2013-02-06 21:55:00
4:15 PM,32.0,26.6,80,29.84,10.0,North,6.9,-,N/A,,Scattered Clouds,360,2013-02-06 22:15:00
4:35 PM,30.2,26.6,86,29.84,10.0,North,8.1,-,N/A,,Scattered Clouds,360,2013-02-06 22:35:00
4:55 PM,28.4,26.6,93,29.86,10.0,North,5.8,-,N/A,,Mostly Cloudy,350,2013-02-06 22:55:00
5:15 PM,28.4,26.6,93,29.86,10.0,North,9.2,-,N/A,,Overcast,360,2013-02-06 23:15:00
5:35 PM,28.4,26.6,93,29.87,10.0,NW,9.2,-,N/A,,Overcast,320,2013-02-06 23:35:00
5:55 PM,28.4,24.8,86,29.89,10.0,NNW,4.6,-,N/A,,Overcast,340,2013-02-06 23:55:00
6:15 PM,28.4,24.8,86,29.90,10.0,NNW,4.6,-,N/A,,Overcast,340,2013-02-07 00:15:00
6:35 PM,28.4,26.6,93,29.91,10.0,NNW,4.6,-,N/A,,Overcast,330,2013-02-07 00:35:00
6:55 PM,28.4,26.6,93,29.91,10.0,NW,4.6,-,N/A,,Overcast,320,2013-02-07 00:55:00
7:15 PM,28.4,26.6,93,29.92,10.0,North,4.6,-,N/A,,Overcast,360,2013-02-07 01:15:00
7:35 PM,28.4,26.6,93,29.92,10.0,North,4.6,-,N/A,,Overcast,360,2013-02-07 01:35:00
7:55 PM,28.4,26.6,93,29.93,10.0,North,4.6,-,N/A,,Overcast,360,2013-02-07 01:55:00
8:15 PM,28.4,26.6,93,29.93,10.0,North,3.5,-,N/A,,Overcast,350,2013-02-07 02:15:00
8:35 PM,28.4,26.6,93,29.94,10.0,Calm,Calm,-,N/A,,Overcast,0,2013-02-07 02:35:00
8:55 PM,26.6,24.8,93,29.95,7.0,East,9.2,-,N/A,,Overcast,90,2013-02-07 02:55:00
9:15 PM,26.6,24.8,93,29.95,5.0,East,10.4,-,N/A,,Overcast,90,2013-02-07 03:15:00
9:35 PM,24.8,24.8,100,29.96,4.0,East,10.4,-,N/A,,Overcast,90,2013-02-07 03:35:00
9:55 PM,24.8,24.8,100,29.97,5.0,East,9.2,-,N/A,,Overcast,100,2013-02-07 03:55:00
10:15 PM,24.8,24.8,100,29.97,5.0,ESE,12.7,-,N/A,,Overcast,110,2013-02-07 04:15:00
10:35 PM,24.8,24.8,100,29.98,3.0,ESE,11.5,-,N/A,,Overcast,110,2013-02-07 04:35:00
10:55 PM,24.8,24.8,100,29.97,4.0,ESE,12.7,-,N/A,,Overcast,110,2013-02-07 04:55:00
11:15 PM,24.8,23.0,93,29.98,3.0,ESE,15.0,-,N/A,,Overcast,110,2013-02-07 05:15:00
11:35 PM,24.8,24.8,100,29.98,3.0,ESE,15.0,-,N/A,,Overcast,120,2013-02-07 05:35:00
11:55 PM,24.8,24.8,100,29.98,2.5,ESE,13.8,-,N/A,,Overcast,120,2013-02-07 05:55:00